Location: Piotrkow Trybunalski
(51.4000°N, 19.6830°E)
Time: 08:26:47
(UTC+01:00)

Transit 4A - Pass Details

Date: 04 December 2023
Orbit: 869 x 973 km, 66.8° (Epoch: 28 February)

Event Time Altitude Azimuth Distance (km) Brightness Sun altitude
Exits shadow 05:35:06 26° 287° (WNW) 1,743 8.7 -16.6°
Maximum altitude 05:37:24 34° 248° (WSW) 1,460 8.5 -16.2°
Drops below altitude 10° 05:42:40 10° 185° (S) 2,562 10.3 -15.5°
Sets 05:45:20 0° 176° (S) 3,483 11.2 -15.1°
